Weather History for Salem, OR

Change the Weather History Date:

Wednesday, March 13, 2013

  Actual Average Record
Temperature  
Mean Temperature 55 °F 47 °F  
Max Temperature 66 °F 56 °F 74 °F (1934)
Min Temperature 43 °F 37 °F 23 °F (1962)
Degree Days  
Heating Degree Days 10 18  
Month to date heating degree days 239 252  
Since 1 July heating degree days 3298 3492  
Cooling Degree Days 0 0  
Month to date cooling degree days 0 0  
Year to date cooling degree days 0 0  
Growing Degree Days 4 (Base 50)    
Moisture  
Dew Point 47 °F    
Average Humidity 74    
Maximum Humidity 100    
Minimum Humidity 48    
Precipitation  
Precipitation 0.00 in 0.12 in 0.90 in (1980)
Month to date precipitation 0.62 1.79  
Year to date precipitation 3.67 12.31  
Snow  
Snow 0.00 in - - ()
Month to date snowfall 0.0  
Snow Depth 0.00 in    
Sea Level Pressure  
Sea Level Pressure 30.17 in    
Wind  
Wind Speed 2 mph (ESE)    
Max Wind Speed 8 mph    
Max Gust Speed 9 mph    
Visibility 10 miles    
Events      
T = Trace of Precipitation, MM = Missing Value Source: NWS Daily Summary

Daily Weather History Graph

Daily Weather History Graph

Search for Another Location

Airport:

Trip Planner

Search our weather history database for the weather conditions in past years. The results will help you decide how hot, cold, wet, or windy it might be!

Date:

Astronomy

Mar. 13, 2013 Rise Set
Actual Time 7:27 AM PDT 7:15 PM PDT
Civil Twilight 6:58 AM PDT 7:45 PM PDT
Nautical Twilight 6:24 AM PDT 8:19 PM PDT
Astronomical Twilight 5:49 AM PDT 8:53 PM PDT
Moon 8:03 AM PDT (3/13) 9:46 PM PDT (3/13)
Length of Visible Light 12h 46m
Length of Day
11h 48m
Waxing Crescent, 4% of the Moon is Illuminated
Mar 13
Waxing Crescent
Mar 19
First Quarter
Mar 27
Full
Apr 2
Last Quarter
Apr 10
New

Hourly Weather History & Observations

Time (PDT) Temp. Windchill Dew Point Humidity Pressure Visibility Wind Dir Wind Speed Gust Speed Precip Events Conditions
12:56 AM 48.9 °F - 45.0 °F 86% 30.20 in 10.0 mi Calm Calm - N/A   Overcast
1:56 AM 48.9 °F - 45.0 °F 86% 30.22 in 10.0 mi Calm Calm - N/A   Overcast
2:56 AM 48.9 °F - 45.0 °F 86% 30.23 in 10.0 mi Calm Calm - N/A   Mostly Cloudy
3:56 AM 46.9 °F - 45.0 °F 93% 30.23 in 10.0 mi Calm Calm - N/A   Overcast
4:56 AM 46.9 °F - 44.1 °F 90% 30.23 in 10.0 mi Calm Calm - N/A   Overcast
5:56 AM 46.9 °F - 44.1 °F 90% 30.22 in 10.0 mi Calm Calm - N/A   Mostly Cloudy
6:56 AM 45.0 °F - 43.0 °F 93% 30.22 in 10.0 mi Calm Calm - N/A   Mostly Cloudy
7:56 AM 45.0 °F 42.6 °F 44.1 °F 97% 30.21 in 10.0 mi South 4.6 mph - N/A   Overcast
8:56 AM 48.9 °F - 46.0 °F 90% 30.20 in 10.0 mi ESE 3.5 mph - N/A   Mostly Cloudy
9:56 AM 52.0 °F - 46.9 °F 83% 30.22 in 10.0 mi SSE 3.5 mph - N/A   Partly Cloudy
10:56 AM 55.0 °F - 46.9 °F 74% 30.21 in 10.0 mi SE 4.6 mph - N/A   Scattered Clouds
11:56 AM 57.9 °F - 46.0 °F 65% 30.20 in 10.0 mi SE 5.8 mph - N/A   Partly Cloudy
1:56 PM 63.0 °F - 46.9 °F 56% 30.18 in 10.0 mi Variable 3.5 mph - N/A   Partly Cloudy
2:56 PM 64.9 °F - 44.1 °F 47% 30.15 in 10.0 mi Variable 3.5 mph - N/A   Clear
3:56 PM 66.0 °F - 46.0 °F 48% 30.14 in 10.0 mi Calm Calm - N/A   Clear
4:56 PM 64.9 °F - 46.0 °F 50% 30.12 in 10.0 mi East 3.5 mph - N/A   Clear
5:56 PM 64.0 °F - 46.0 °F 52% 30.11 in 10.0 mi SSE 3.5 mph - N/A   Clear
6:56 PM 61.0 °F - 51.1 °F 70% 30.09 in 10.0 mi NNE 5.8 mph - N/A   Clear
7:56 PM 59.0 °F - 51.1 °F 75% 30.10 in 10.0 mi NNW 4.6 mph - N/A   Clear
8:56 PM 57.9 °F - 50.0 °F 75% 30.09 in 10.0 mi Calm Calm - N/A   Clear
9:56 PM 54.0 °F - 48.9 °F 83% 30.10 in 10.0 mi Calm Calm - N/A   Clear
10:56 PM 53.1 °F - 50.0 °F 89% 30.09 in 10.0 mi Calm Calm - N/A   Clear
11:56 PM 52.0 °F - 48.9 °F 89% 30.10 in 10.0 mi Calm Calm - N/A   Clear